Block Island, RI

1:08 PM EST on December 16, 2017 (GMT -0500)
Block Island State

Weather History for KBID - February, 2014

Change the Weather History Date:

Tuesday, February 25, 2014

  Actual Average Record
Temperature  
Mean Temperature 27 °F -  
Max Temperature 30 °F 39 °F 59 °F (2017)
Min Temperature 24 °F 28 °F 10 °F (1993)
Degree Days  
Heating Degree Days 38    
Moisture  
Dew Point 9 °F    
Average Humidity 46    
Maximum Humidity 55    
Minimum Humidity 40    
Precipitation  
Precipitation 0.00 in - - ()
Sea Level Pressure  
Sea Level Pressure 29.96 in    
Wind  
Wind Speed 13 mph (WNW)    
Max Wind Speed 22 mph    
Max Gust Speed 31 mph    
Visibility 10 miles    
Events      
Averages and records for this station are not official NWS values.
T = Trace of Precipitation, MM = Missing Value Source: NWS Daily Summary

Daily Weather History Graph

Daily Weather History Graph

Search for Another Location

Airport or City:

Trip Planner

Search our weather history database for the weather conditions in past years. The results will help you decide how hot, cold, wet, or windy it might be!

Date:

Astronomy

Feb. 25, 2014 Rise Set
Actual Time 6:26 AM EST 5:32 PM EST
Civil Twilight 5:59 AM EST 6:00 PM EST
Nautical Twilight 5:27 AM EST 6:32 PM EST
Astronomical Twilight 4:55 AM EST 7:04 PM EST
Moon 3:20 AM EST (2/25) 1:33 PM EST (2/25)
Length of Visible Light 12h 01m
Length of Day
11h 05m
Waning Crescent, 18% of the Moon is Illuminated
Feb 25
Waning Crescent
Mar 1
New
Mar 8
First Quarter
Mar 16
Full
Mar 23
Last Quarter

Hourly Weather History & Observations

Time (EST) Temp. Windchill Dew Point Humidity Pressure Visibility Wind Dir Wind Speed Gust Speed Precip Events Conditions
12:15 AM 26.6 °F 15.2 °F 6.8 °F 43% 29.99 in 10.0 mi WNW 13.8 mph 28.8 mph N/A   Clear
12:35 AM 26.6 °F 13.4 °F 6.8 °F 43% 29.99 in 10.0 mi WNW 18.4 mph 28.8 mph N/A   Clear
12:55 AM 26.6 °F 14.7 °F 5.0 °F 40% 30.00 in 10.0 mi WNW 15.0 mph 26.5 mph N/A   Clear
1:15 AM 26.6 °F 16.8 °F 6.8 °F 43% 30.01 in 10.0 mi WNW 10.4 mph 26.5 mph N/A   Clear
1:35 AM 26.6 °F 15.7 °F 6.8 °F 43% 30.00 in 10.0 mi WNW 12.7 mph 24.2 mph N/A   Clear
1:55 AM 26.6 °F 15.2 °F 5.0 °F 40% 30.00 in 10.0 mi WNW 13.8 mph 27.6 mph N/A   Clear
2:15 AM 26.6 °F 16.2 °F 6.8 °F 43% 30.00 in 10.0 mi WNW 11.5 mph 24.2 mph N/A   Clear
2:35 AM 24.8 °F 14.0 °F 6.8 °F 46% 29.99 in 10.0 mi WNW 11.5 mph 25.3 mph N/A   Clear
2:55 AM 24.8 °F 12.4 °F 5.0 °F 43% 29.99 in 10.0 mi WNW 15.0 mph 24.2 mph N/A   Partly Cloudy
3:15 AM 24.8 °F 14.6 °F 5.0 °F 43% 29.98 in 10.0 mi WNW 10.4 mph 20.7 mph N/A   Clear
3:35 AM 24.8 °F 12.4 °F 6.8 °F 46% 30.00 in 10.0 mi WNW 15.0 mph 24.2 mph N/A   Clear
3:55 AM 24.8 °F 13.4 °F 5.0 °F 43% 29.99 in 10.0 mi WNW 12.7 mph 20.7 mph N/A   Clear
4:15 AM 24.8 °F 14.0 °F 5.0 °F 43% 30.00 in 10.0 mi WNW 11.5 mph 20.7 mph N/A   Clear
4:35 AM 24.8 °F 14.0 °F 5.0 °F 43% 30.00 in 10.0 mi WNW 11.5 mph 24.2 mph N/A   Clear
4:55 AM 24.8 °F 15.3 °F 5.0 °F 43% 30.00 in 10.0 mi WNW 9.2 mph 19.6 mph N/A   Clear
5:15 AM 24.8 °F 14.6 °F 3.2 °F 40% 30.00 in 10.0 mi NW 10.4 mph 19.6 mph N/A   Clear
5:35 AM 24.8 °F 13.4 °F 3.2 °F 40% 30.00 in 10.0 mi WNW 12.7 mph 20.7 mph N/A   Clear
5:55 AM 24.8 °F 14.0 °F 5.0 °F 43% 30.00 in 10.0 mi WNW 11.5 mph 23.0 mph N/A   Clear
6:15 AM 24.8 °F 14.6 °F 5.0 °F 43% 30.00 in 10.0 mi WNW 10.4 mph 20.7 mph N/A   Clear
6:35 AM 24.8 °F 14.6 °F 5.0 °F 43% 30.01 in 10.0 mi WNW 10.4 mph - N/A   Clear
6:55 AM 24.8 °F 12.4 °F 6.8 °F 46% 30.01 in 10.0 mi WNW 15.0 mph 21.9 mph N/A   Clear
7:15 AM 24.8 °F 14.0 °F 3.2 °F 40% 30.01 in 10.0 mi NW 11.5 mph 20.7 mph N/A   Clear
7:35 AM 24.8 °F 14.6 °F 6.8 °F 46% 30.02 in 10.0 mi WNW 10.4 mph 20.7 mph N/A   Clear
7:55 AM 24.8 °F 12.9 °F 6.8 °F 46% 30.02 in 10.0 mi WNW 13.8 mph 21.9 mph N/A   Clear
8:15 AM 24.8 °F 14.0 °F 6.8 °F 46% 30.02 in 10.0 mi West 11.5 mph 23.0 mph N/A   Clear
8:35 AM 24.8 °F 16.1 °F 6.8 °F 46% 30.02 in 10.0 mi WNW 8.1 mph 19.6 mph N/A   Clear
8:55 AM 26.6 °F 15.7 °F 8.6 °F 47% 30.02 in 10.0 mi WNW 12.7 mph 19.6 mph N/A   Clear
9:15 AM 26.6 °F 16.8 °F 6.8 °F 43% 30.01 in 10.0 mi WNW 10.4 mph 16.1 mph N/A   Clear
9:35 AM 26.6 °F 16.2 °F 8.6 °F 47% 30.02 in 10.0 mi West 11.5 mph 17.3 mph N/A   Clear
9:55 AM 26.6 °F 15.7 °F 8.6 °F 47% 30.02 in 10.0 mi WNW 12.7 mph 19.6 mph N/A   Scattered Clouds
10:15 AM 26.6 °F 15.7 °F 8.6 °F 47% 30.01 in 10.0 mi WNW 12.7 mph 19.6 mph N/A   Mostly Cloudy
10:35 AM 26.6 °F 16.2 °F 8.6 °F 47% 30.00 in 10.0 mi West 11.5 mph 18.4 mph N/A   Mostly Cloudy
10:55 AM 26.6 °F 16.2 °F 10.4 °F 51% 30.00 in 10.0 mi West 11.5 mph 19.6 mph N/A   Overcast
11:15 AM 28.4 °F 16.2 °F 10.4 °F 47% 29.99 in 10.0 mi West 17.3 mph 23.0 mph N/A   Overcast
11:35 AM 26.6 °F 13.4 °F 10.4 °F 51% 29.99 in 10.0 mi West 18.4 mph 24.2 mph N/A   Overcast
11:55 AM 26.6 °F 14.3 °F 12.2 °F 55% 29.97 in 10.0 mi West 16.1 mph 25.3 mph N/A   Overcast
12:15 PM 28.4 °F 14.7 °F 12.2 °F 51% 29.96 in 10.0 mi West 21.9 mph 31.1 mph N/A   Overcast
12:35 PM 28.4 °F 17.5 °F 12.2 °F 51% 29.95 in 10.0 mi West 13.8 mph 24.2 mph N/A   Mostly Cloudy
12:55 PM 30.2 °F 18.5 °F 12.2 °F 47% 29.94 in 10.0 mi West 17.3 mph 28.8 mph N/A   Mostly Cloudy
1:15 PM 30.2 °F 18.5 °F 12.2 °F 47% 29.93 in 10.0 mi West 17.3 mph 28.8 mph N/A   Scattered Clouds
1:35 PM 30.2 °F 17.8 °F 12.2 °F 47% 29.92 in 10.0 mi West 19.6 mph 27.6 mph N/A   Scattered Clouds
1:55 PM 30.2 °F 18.9 °F 12.2 °F 47% 29.91 in 10.0 mi West 16.1 mph 25.3 mph N/A   Partly Cloudy
2:15 PM 30.2 °F 18.5 °F 14.0 °F 51% 29.91 in 10.0 mi West 17.3 mph 26.5 mph N/A   Partly Cloudy
2:35 PM 30.2 °F 17.8 °F 12.2 °F 47% 29.90 in 10.0 mi West 19.6 mph 27.6 mph N/A   Scattered Clouds
2:55 PM 30.2 °F 17.1 °F 12.2 °F 47% 29.90 in 10.0 mi West 21.9 mph 31.1 mph N/A   Partly Cloudy
3:15 PM 30.2 °F 17.1 °F 12.2 °F 47% 29.89 in 10.0 mi West 21.9 mph 31.1 mph N/A   Partly Cloudy
3:35 PM 30.2 °F 18.1 °F 12.2 °F 47% 29.89 in 10.0 mi WNW 18.4 mph 28.8 mph N/A   Partly Cloudy
3:55 PM 30.2 °F 17.8 °F 14.0 °F 51% 29.89 in 10.0 mi West 19.6 mph 27.6 mph N/A   Scattered Clouds
4:15 PM 30.2 °F 19.3 °F 12.2 °F 47% 29.88 in 10.0 mi West 15.0 mph 26.5 mph N/A   Scattered Clouds
4:35 PM 30.2 °F 18.9 °F 12.2 °F 47% 29.88 in 10.0 mi West 16.1 mph 24.2 mph N/A   Mostly Cloudy
4:55 PM 30.2 °F 19.8 °F 12.2 °F 47% 29.88 in 10.0 mi West 13.8 mph 24.2 mph N/A   Overcast
5:15 PM 30.2 °F 20.8 °F 12.2 °F 47% 29.89 in 10.0 mi WNW 11.5 mph 24.2 mph N/A   Overcast
5:35 PM 30.2 °F 20.8 °F 12.2 °F 47% 29.89 in 10.0 mi West 11.5 mph 20.7 mph N/A   Overcast
5:55 PM 30.2 °F 19.3 °F 10.4 °F 44% 29.90 in 10.0 mi West 15.0 mph 20.7 mph N/A   Overcast
6:15 PM 30.2 °F 20.8 °F 12.2 °F 47% 29.90 in 10.0 mi NW 11.5 mph 20.7 mph N/A   Overcast
6:35 PM 28.4 °F 18.0 °F 8.6 °F 43% 29.91 in 10.0 mi WNW 12.7 mph 19.6 mph N/A   Mostly Cloudy
6:55 PM 28.4 °F 18.5 °F 10.4 °F 47% 29.91 in 10.0 mi NW 11.5 mph 21.9 mph N/A   Mostly Cloudy
7:15 PM 28.4 °F 17.5 °F 8.6 °F 43% 29.92 in 10.0 mi WNW 13.8 mph 25.3 mph N/A   Scattered Clouds
7:35 PM 28.4 °F 19.7 °F 8.6 °F 43% 29.92 in 10.0 mi NW 9.2 mph 25.3 mph N/A   Scattered Clouds
7:55 PM 28.4 °F 19.7 °F 10.4 °F 47% 29.93 in 10.0 mi NNW 9.2 mph - N/A   Partly Cloudy
8:15 PM 28.4 °F 21.2 °F 12.2 °F 51% 29.93 in 10.0 mi NNW 6.9 mph 17.3 mph N/A   Clear
8:35 PM 26.6 °F 18.2 °F 12.2 °F 55% 29.93 in 10.0 mi NW 8.1 mph - N/A   Clear
8:55 PM 26.6 °F 16.2 °F 10.4 °F 51% 29.94 in 10.0 mi NW 11.5 mph - N/A   Clear
9:15 PM 26.6 °F 16.2 °F 10.4 °F 51% 29.95 in 10.0 mi NNW 11.5 mph 16.1 mph N/A   Clear
9:35 PM 26.6 °F 16.2 °F 10.4 °F 51% 29.96 in 10.0 mi NNW 11.5 mph 18.4 mph N/A   Clear
9:55 PM 26.6 °F 16.8 °F 8.6 °F 47% 29.96 in 10.0 mi NNW 10.4 mph 18.4 mph N/A   Clear
10:15 PM 26.6 °F 16.8 °F 8.6 °F 47% 29.96 in 10.0 mi NNW 10.4 mph 17.3 mph N/A   Clear
10:35 PM 24.8 °F 13.4 °F 8.6 °F 50% 29.96 in 10.0 mi NNW 12.7 mph 16.1 mph N/A   Clear
10:55 PM 24.8 °F 14.6 °F 8.6 °F 50% 29.95 in 10.0 mi NNW 10.4 mph - N/A   Clear
11:15 PM 24.8 °F 14.6 °F 8.6 °F 50% 29.96 in 10.0 mi NNW 10.4 mph - N/A   Clear
11:35 PM 24.8 °F 15.3 °F 6.8 °F 46% 29.96 in 10.0 mi NW 9.2 mph - N/A   Clear
11:55 PM 24.8 °F 14.0 °F 6.8 °F 46% 29.96 in 10.0 mi NNW 11.5 mph 16.1 mph N/A   Clear